Wind_Speed
18 19 20 20 20 20 20 21 21 22 23 24 24 25 25 25 25 25 25 25 25 24 24 24 24 24 24 23 23 22 23 23 23 24 24 24 24 24 24 25 25 25 25
18 20 19 19 20 20 20 21 22 23 24 24 25 25 24 25 24 23 23 23 23 23 23 23 23 23 23 23 23 23 23 22 23 24 24 24 24 24 24 25 26 26 26
19 20 20 20 21 21 21 22 23 24 24 25 25 24 24 23 22 22 22 22 22 22 22 23 23 23 23 23 22 23 23 23 23 24 25 25 24 24 24 25 26 26 27
19 20 21 21 22 22 22 22 23 23 24 24 23 23 22 21 21 21 22 22 22 22 23 22 22 23 23 23 23 24 24 24 23 24 25 25 25 25 25 26 26 27 27
19 20 21 21 22 22 22 22 22 23 23 23 22 21 21 21 20 21 21 21 21 21 21 22 22 23 23 23 24 24 24 25 24 24 24 25 25 25 25 25 26 27 27
21 21 21 21 21 22 22 23 23 23 23 22 22 21 21 21 21 21 21 20 21 21 22 22 23 23 23 24 25 25 25 25 25 25 25 25 25 25 25 25 26 27 27
22 22 22 22 23 24 24 24 24 24 24 24 23 24 23 22 21 20 20 21 21 22 22 23 23 24 24 25 25 26 26 26 26 26 26 26 26 26 26 26 26 27 27
22 23 24 24 24 25 26 26 25 25 25 25 25 24 24 23 22 21 22 22 22 23 24 24 24 25 25 25 25 25 26 26 26 26 26 27 27 27 27 27 27 27 27
24 25 25 25 26 26 27 27 27 27 27 26 26 25 25 25 25 24 25 25 24 25 25 26 26 26 27 27 27 26 27 27 27 27 27 27 28 28 28 28 28 27 27
25 26 26 27 28 28 28 28 28 28 28 27 27 27 27 27 27 26 26 26 26 27 27 28 28 27 27 28 28 28 29 28 28 28 28 28 28 29 29 29 29 29 28
27 26 28 28 28 28 28 28 28 28 28 28 28 28 28 27 27 27 27 27 27 28 28 28 28 29 29 29 29 30 30 30 30 30 30 29 29 29 29 29 29 29 28
27 28 27 27 28 28 27 28 28 28 28 28 28 28 28 28 28 27 27 27 27 28 28 28 28 28 29 29 30 30 30 30 30 31 30 29 30 30 30 30 30 29 29
26 27 27 27 27 27 27 27 27 27 28 28 29 29 28 28 28 28 28 28 28 28 28 28 28 28 28 29 30 30 31 31 30 30 30 30 29 29 29 29 30 30 29
27 27 27 27 27 27 27 27 26 26 26 26 26 26 27 27 27 27 27 27 28 28 29 29 28 28 29 29 29 29 29 29 30 30 29 30 30 29 29 28 29 29 28
27 27 27 27 27 27 27 27 25 25 25 25 26 26 26 27 26 26 26 26 27 28 28 27 27 28 28 28 28 27 28 27 27 28 28 28 28 28 28 28 27 27 26
25 25 26 26 26 26 26 26 26 26 26 25 25 25 26 26 26 25 25 26 26 26 26 27 27 26 26 26 26 26 26 26 26 26 26 27 27 27 26 26 25 25 24
23 23 24 23 24 24 24 24 24 24 24 23 23 24 24 24 24 24 25 25 25 25 25 25 24 24 24 25 25 25 24 24 24 24 24 24 24 25 24 24 23 22 21
22 22 22 22 22 23 23 23 24 24 23 23 24 24 24 24 23 23 24 23 22 22 22 22 22 22 22 21 22 21 21 21 22 22 22 22 21 21 21 20 20 19 18
21 21 21 21 21 21 21 21 21 21 21 22 22 22 23 22 22 22 22 22 21 21 20 19 19 20 20 20 19 19 19 19 19 19 18 18 18 18 17 17 17 16 16
20 20 20 19 19 20 20 20 20 20 20 20 20 20 21 20 20 20 20 19 18 18 18 18 18 19 18 18 18 17 17 16 15 15 15 14 14 14 14 13 14 14 14
18 18 17 17 17 18 17 17 17 18 18 17 17 16 16 15 16 17 17 17 16 16 16 16 16 16 16 16 16 15 14 14 13 13 13 13 12 12 12 12 12 11 12
16 16 16 16 16 15 15 15 15 15 15 15 14 14 13 14 14 14 14 14 14 13 13 13 13 13 13 13 13 13 12 12 12 11 11 10 11 11 11 11 11 10 10
15 15 15 14 14 13 12 12 11 11 11 11 11 12 12 12 12 11 11 10 11 10 10 10 10 10 10 10 9 9 10 9 9 9 9 9 8 9 10 10 10 10 10
15 15 14 12 11 10 9 9 9 9 9 9 10 10 10 9 9 9 8 8 8 8 7 7 7 7 8 8 7 7 7 7 7 7 7 8 8 8 9 11 12 11 10
14 13 12 11 10 9 8 8 8 8 9 9 9 8 8 8 8 8 7 6 5 5 5 5 5 5 5 5 4 4 4 4 4 5 6 6 7 7 9 10 10 10 9
14 13 12 11 9 9 8 8 7 8 8 8 7 6 7 7 6 6 5 4 4 3 3 3 3 3 3 2 1 2 2 2 3 4 5 6 7 8 9 9 10 10 9
Wind_Direction
273 277 278 278 278 275 276 277 280 280 282 282 281 283 280 277 277 274 270 269 266 267 265 263 264 266 268 268 269 270 269 269 268 268 269 269 269 268 269 270 271 272 273
276 278 278 279 279 280 280 280 282 281 282 284 283 282 280 276 274 273 271 269 267 266 265 265 267 268 270 271 270 270 271 270 270 270 270 271 272 271 270 270 272 273 273
275 276 279 279 281 282 283 282 283 284 284 283 282 282 281 278 274 271 268 267 266 265 266 268 269 270 271 272 273 272 273 273 271 271 272 273 273 273 273 272 272 273 274
277 278 281 281 282 283 283 282 283 284 284 284 282 280 280 277 274 270 265 264 265 268 270 271 269 269 269 270 271 272 272 274 275 274 275 276 276 273 272 273 274 275 276
277 281 284 283 283 284 285 285 285 285 285 285 284 282 281 277 276 273 269 267 269 272 273 272 273 272 272 272 272 273 273 274 276 276 276 277 277 276 275 274 275 276 278
279 283 285 284 283 285 285 287 288 289 288 288 285 284 283 282 278 275 272 273 274 276 275 274 274 273 274 274 273 273 273 275 276 276 277 276 276 277 277 276 276 276 278
280 283 284 283 285 285 285 286 286 287 288 288 287 286 286 285 280 276 274 275 275 276 276 275 275 275 274 275 274 274 274 274 275 275 275 275 275 275 276 277 277 277 277
282 283 284 285 286 286 285 285 285 286 287 286 285 285 286 283 280 277 274 274 275 275 275 276 276 276 275 275 275 275 274 274 274 274 274 274 274 275 276 278 278 277 277
282 284 285 286 286 287 287 285 284 284 285 284 284 284 284 281 279 277 275 275 275 275 275 275 275 275 274 274 274 274 274 274 274 273 273 273 274 275 275 277 278 278 278
282 284 286 287 286 287 286 284 284 284 283 282 281 283 283 282 279 277 276 276 276 276 276 276 275 274 274 274 274 274 274 273 273 273 272 272 272 273 275 275 276 277 277
285 286 288 288 286 286 285 285 283 283 283 282 281 281 281 282 280 278 279 278 278 278 279 277 276 275 274 274 274 273 273 272 272 272 272 272 272 272 274 274 274 275 277
286 287 287 287 287 286 285 284 283 282 282 281 281 281 281 280 279 278 278 278 279 280 280 279 277 277 277 276 275 275 274 273 273 272 271 271 272 271 273 272 271 273 275
287 288 288 288 287 287 286 286 284 284 282 280 280 280 281 281 280 280 280 279 279 281 283 281 280 280 279 279 277 276 275 273 274 273 272 271 271 270 271 271 270 271 272
288 290 290 290 291 288 287 287 286 285 284 283 282 282 282 282 283 284 283 281 281 282 282 282 282 282 281 280 278 277 276 274 273 272 272 270 270 269 269 270 270 269 270
290 291 290 290 290 289 287 287 286 286 286 286 285 285 284 284 285 286 286 284 283 283 282 283 283 281 281 280 279 278 277 276 275 273 271 270 269 269 268 269 269 268 268
293 292 291 290 289 287 286 285 286 286 286 286 286 287 287 287 286 285 285 284 284 284 282 281 282 282 280 279 278 279 277 275 274 273 271 270 269 267 266 266 266 266 265
296 294 293 292 291 291 290 290 288 286 286 286 285 287 287 287 287 285 285 285 284 284 282 282 283 282 281 279 278 277 278 276 274 272 271 270 268 266 265 263 263 262 260
300 299 296 295 294 293 293 292 291 290 289 288 288 287 286 286 286 286 286 286 287 286 285 285 283 283 283 282 280 277 276 276 275 273 270 268 266 266 264 260 259 258 254
302 301 300 298 295 294 293 294 295 293 290 291 291 290 288 287 289 289 288 288 288 287 287 287 286 286 285 282 280 279 279 278 276 272 270 268 264 262 257 253 251 250 248
304 303 302 301 300 299 296 296 295 294 294 294 295 295 294 293 292 292 293 292 291 289 287 286 287 288 286 285 282 277 276 275 274 272 267 265 261 254 249 244 240 238 237
310 308 307 305 304 303 301 299 297 297 298 300 301 299 299 300 298 297 297 295 292 288 286 286 287 287 286 285 281 276 273 268 265 265 262 258 254 250 244 236 231 228 226
319 316 314 312 308 306 305 303 301 299 300 303 303 304 305 306 304 304 300 295 292 288 286 285 285 285 284 282 280 273 267 264 259 258 255 250 241 237 231 223 220 217 213
327 325 322 318 315 314 312 312 311 310 313 313 313 313 312 312 311 308 302 296 292 289 286 283 284 287 286 283 280 268 264 261 258 255 251 239 227 219 213 205 201 202 204
338 337 336 332 330 329 327 324 324 329 329 327 325 323 323 324 325 321 312 304 297 294 292 291 290 293 292 286 276 265 257 253 248 242 230 215 205 202 195 190 188 191 191
352 352 350 346 346 345 340 339 336 339 339 338 338 341 341 340 338 335 330 324 319 311 304 301 304 309 305 294 271 254 244 229 214 206 203 199 188 182 179 177 179 185 186
3 4 4 2 359 356 352 351 347 347 347 349 351 353 355 356 356 355 359 1 357 354 355 350 344 339 338 342 283 204 190 183 168 159 166 171 170 170 172 174 176 176 176
Height
5848 5848 5848 5848 5848 5847 5847 5846 5846 5845 5844 5843 5842 5841 5841 5840 5840 5840 5840 5840 5840 5841 5842 5843 5844 5845 5846 5847 5848 5850 5851 5852 5853 5854 5855 5856 5857 5858 5858 5859 5859 5859 5859
5845 5845 5845 5845 5844 5844 5843 5842 5841 5840 5839 5838 5837 5836 5836 5836 5835 5834 5835 5835 5835 5836 5837 5838 5839 5840 5842 5842 5843 5844 5845 5846 5847 5848 5849 5850 5852 5851 5852 5852 5853 5853 5854
5842 5842 5842 5841 5840 5840 5839 5838 5837 5836 5834 5833 5832 5831 5831 5831 5830 5829 5830 5830 5830 5831 5832 5833 5834 5835 5836 5837 5838 5839 5840 5840 5842 5842 5843 5844 5845 5845 5846 5846 5847 5847 5848
5838 5838 5838 5837 5836 5836 5835 5833 5832 5831 5830 5829 5828 5827 5826 5826 5825 5824 5825 5825 5825 5826 5826 5827 5828 5829 5831 5832 5833 5833 5834 5835 5835 5836 5837 5838 5838 5839 5840 5841 5841 5841 5841
5834 5834 5833 5832 5832 5831 5830 5829 5828 5826 5825 5824 5823 5822 5821 5821 5820 5820 5820 5820 5820 5820 5821 5821 5822 5824 5825 5826 5827 5827 5828 5828 5829 5830 5830 5831 5831 5832 5833 5834 5835 5835 5835
5830 5829 5829 5828 5827 5826 5826 5824 5823 5822 5821 5820 5819 5818 5817 5816 5815 5815 5815 5815 5815 5815 5816 5816 5817 5818 5818 5819 5820 5820 5821 5822 5823 5824 5824 5825 5825 5826 5826 5827 5828 5828 5828
5826 5825 5824 5823 5822 5822 5821 5819 5818 5817 5816 5815 5814 5813 5812 5811 5810 5810 5809 5809 5809 5810 5810 5811 5811 5812 5812 5813 5813 5814 5814 5815 5816 5817 5818 5818 5819 5819 5820 5821 5821 5821 5821
5821 5820 5819 5818 5817 5816 5815 5814 5813 5812 5811 5810 5808 5807 5807 5806 5805 5804 5804 5804 5804 5804 5805 5804 5805 5805 5805 5806 5806 5807 5808 5808 5809 5809 5810 5811 5812 5812 5813 5814 5814 5814 5814
5817 5816 5814 5813 5812 5811 5810 5808 5807 5806 5805 5804 5803 5802 5801 5800 5799 5799 5798 5798 5798 5798 5798 5798 5798 5798 5798 5799 5799 5800 5800 5801 5801 5802 5803 5804 5805 5805 5805 5806 5806 5807 5807
5813 5811 5809 5808 5806 5805 5803 5802 5801 5799 5798 5797 5796 5795 5794 5793 5792 5792 5791 5791 5791 5791 5791 5790 5790 5790 5791 5791 5791 5792 5792 5793 5794 5794 5795 5796 5797 5797 5798 5798 5799 5799 5800
5807 5805 5804 5802 5800 5798 5797 5795 5794 5793 5791 5790 5789 5788 5787 5786 5786 5785 5784 5784 5784 5784 5783 5783 5783 5783 5783 5783 5783 5783 5784 5785 5785 5786 5787 5788 5789 5789 5790 5791 5791 5791 5792
5801 5799 5797 5795 5793 5791 5790 5788 5787 5786 5784 5783 5782 5781 5780 5780 5779 5778 5777 5777 5776 5776 5776 5775 5775 5775 5774 5774 5774 5775 5775 5776 5777 5777 5778 5779 5780 5781 5782 5782 5783 5783 5784
5795 5793 5791 5789 5787 5785 5783 5781 5780 5779 5777 5776 5775 5774 5774 5773 5772 5771 5770 5770 5769 5769 5768 5767 5767 5766 5766 5766 5766 5766 5766 5767 5768 5768 5769 5770 5771 5772 5773 5774 5774 5775 5776
5790 5788 5786 5783 5780 5778 5776 5775 5773 5772 5770 5769 5768 5767 5767 5766 5765 5764 5763 5762 5762 5761 5760 5760 5759 5759 5758 5757 5757 5757 5757 5758 5758 5759 5760 5761 5762 5763 5764 5765 5766 5767 5768
5784 5782 5779 5777 5774 5772 5770 5768 5767 5765 5764 5763 5762 5761 5760 5759 5758 5757 5756 5755 5754 5754 5753 5752 5751 5751 5750 5750 5749 5749 5749 5749 5750 5750 5751 5752 5753 5754 5756 5757 5758 5759 5760
5778 5775 5773 5770 5768 5766 5764 5762 5760 5759 5758 5756 5755 5754 5753 5752 5751 5750 5749 5748 5747 5746 5745 5745 5744 5743 5742 5742 5741 5741 5741 5741 5742 5742 5743 5744 5745 5746 5748 5749 5750 5751 5753
5772 5769 5767 5765 5762 5760 5758 5756 5754 5753 5751 5750 5748 5747 5746 5745 5744 5743 5742 5741 5740 5739 5738 5737 5737 5736 5735 5735 5734 5734 5734 5734 5734 5735 5735 5736 5737 5738 5740 5741 5743 5744 5746
5767 5764 5762 5759 5757 5754 5752 5750 5749 5747 5745 5744 5742 5741 5740 5738 5737 5736 5735 5734 5733 5732 5731 5730 5730 5729 5729 5728 5728 5728 5727 5727 5727 5728 5728 5729 5730 5732 5733 5735 5736 5738 5740
5762 5759 5756 5754 5751 5749 5747 5745 5743 5741 5740 5738 5736 5735 5733 5732 5731 5730 5729 5728 5727 5726 5725 5724 5724 5724 5723 5723 5722 5722 5721 5721 5721 5721 5722 5723 5724 5726 5727 5729 5731 5733 5735
5757 5754 5751 5748 5746 5744 5741 5739 5738 5736 5734 5733 5731 5730 5728 5727 5725 5724 5723 5722 5721 5720 5720 5719 5719 5718 5718 5717 5717 5716 5716 5716 5717 5717 5717 5718 5720 5721 5723 5725 5727 5729 5732
5753 5749 5746 5744 5741 5739 5737 5735 5733 5732 5730 5728 5726 5725 5723 5722 5721 5719 5718 5717 5716 5716 5715 5715 5714 5713 5713 5712 5712 5712 5712 5712 5713 5713 5714 5715 5716 5717 5719 5721 5724 5726 5728
5749 5746 5743 5740 5737 5735 5733 5731 5729 5728 5726 5724 5723 5721 5720 5718 5717 5716 5714 5713 5713 5712 5711 5711 5710 5709 5709 5708 5708 5708 5708 5708 5709 5710 5711 5711 5713 5715 5717 5719 5721 5724 5726
5746 5743 5740 5737 5734 5732 5731 5729 5727 5725 5723 5722 5720 5719 5717 5716 5714 5713 5711 5710 5710 5709 5708 5708 5707 5706 5706 5705 5705 5705 5705 5705 5706 5707 5708 5709 5711 5713 5715 5717 5720 5723 5725
5744 5741 5738 5735 5732 5730 5729 5727 5725 5723 5722 5720 5718 5717 5715 5714 5712 5711 5709 5708 5707 5707 5706 5706 5705 5704 5704 5703 5703 5703 5703 5704 5704 5705 5706 5707 5709 5711 5713 5716 5719 5722 5724
5743 5740 5737 5734 5731 5730 5728 5726 5724 5723 5721 5719 5717 5716 5715 5713 5711 5710 5708 5707 5706 5706 5705 5704 5704 5703 5703 5702 5702 5702 5703 5703 5704 5705 5706 5707 5709 5711 5713 5715 5718 5721 5723
5743 5740 5736 5734 5731 5729 5727 5726 5724 5723 5721 5719 5717 5716 5715 5713 5711 5710 5708 5707 5706 5705 5705 5704 5703 5703 5702 5702 5702 5702 5703 5704 5704 5705 5706 5708 5710 5711 5713 5716 5718 5721 5723